Station LWSD1 - 8557380 - Lewes, DE Image indicating link to RSS feed of recent meteorological observations for station LWSD1


Conditions at LWSD1 as of
(1:18 pm EDT)
1718 GMT on 05/25/2024:
     

Click on the graph icon in the table below to see a time series plot of the last five days of that observation.

5-day plot - Wind Direction Wind Direction (WDIR):SSE ( 160 deg true )
5-day plot - Wind Speed Wind Speed (WSPD): 8.9 kts
5-day plot - Wind Gust Wind Gust (GST): 11.1 kts
5-day plot - Atmospheric Pressure Atmospheric Pressure (PRES):29.88 in
5-day plot - Air Temperature Air Temperature (ATMP): 76.1 °F
5-day plot - Water Temperature Water Temperature (WTMP): 63.1 °F
5-day plot - Wind Speed at 10 Meters Wind Speed at 10 meters (WSPD10M): 9.7 kts
5-day plot - Wind Speed at 20 Meters Wind Speed at 20 meters (WSPD20M): 9.7 kts
5-day plot -  Wind Speed, Wind Gust and Atmospheric Pressure Combined plot of Wind Speed, Gust, and Air Pressure
NOS Water Level Observation Network Water Level
Previous observations
TIME
(EDT)
5-day plot - Wind Direction
WDIR
 
5-day plot - Wind Speed
WSPD
kts
5-day plot - Wind Gust
GST
kts
5-day plot - Wave Height
WVHT
ft
5-day plot - Dominant Wave Period
DPD
sec
5-day plot - Average Wave Period
APD
sec
5-day plot - Mean Wave Direction
MWD
 
5-day plot - Atmospheric Pressure
PRES
in
5-day plot - Pressure Tendency
PTDY
in
5-day plot - Air Temperature
ATMP
°F
5-day plot - Water Temperature
WTMP
°F
5-day plot - Dew Point
DEWP
°F
5-day plot - Salinity
SAL
psu
5-day plot - Visibility
VIS
nmi
5-day plot - Tide (above MLLW)
TIDE
ft
2024-05-25 01:12 pm SE 7.0 8.9----29.88- 76.8 63.3----
2024-05-25 01:06 pmESE 8.0 9.9----29.88- 77.0 63.5----
2024-05-25 01:00 pm SE 7.0 11.1----29.88+0.00 77.2 63.7----
2024-05-25 12:54 pmESE 6.0 12.0----29.88- 76.6 64.2----
2024-05-25 12:48 pm E 9.9 12.0----29.88- 75.6 64.6----
2024-05-25 12:42 pmESE 5.1 7.0----29.89- 76.5 64.9----
2024-05-25 12:36 pmSSE 5.1 8.9----29.89- 76.1 65.5----
2024-05-25 12:30 pm-------29.89- 75.6 66.0----
2024-05-25 12:24 pm-------29.89- 75.7 65.8----
2024-05-25 12:18 pmESE 7.0 11.1----29.89- 75.2 66.0----
2024-05-25 12:12 pmESE 9.9 13.0----29.89- 73.9 65.8----
2024-05-25 12:06 pm SE 7.0 11.1----29.89- 74.7 65.8----
2024-05-25 12:00 pmESE 7.0 8.9----29.89+0.00 74.7 65.8----
2024-05-25 11:54 amESE 4.1 11.1----29.89- 75.2 66.0----
2024-05-25 11:48 amSSE 5.1 7.0----29.89-- 66.0----
2024-05-25 11:42 am SE 5.1 12.0----29.89-- 66.2----
2024-05-25 11:36 amESE 7.0 9.9----29.89-- 66.2----
2024-05-25 11:30 am E 5.1 7.0----29.89- 74.5 66.0----
2024-05-25 11:24 am SE 5.1 14.0----29.89- 74.1 66.2----
2024-05-25 11:18 am E 8.0 11.1----29.89- 73.2 66.2----
2024-05-25 11:12 amESE 5.1 8.0----29.89- 74.1 66.2----
2024-05-25 11:06 am E 12.0 17.1----29.88- 72.0 66.0----
2024-05-25 11:00 am E 6.0 8.0----29.89+0.01 73.2 65.3----
2024-05-25 10:54 amESE 5.1 7.0----29.89- 72.7 64.9----
2024-05-25 10:48 amESE 5.1 21.0----29.89- 71.1 64.9----
2024-05-25 10:42 am E 6.0 8.0----29.89- 71.4 65.1----
2024-05-25 10:36 am SE 7.0 14.0----29.89- 72.1 65.1----
2024-05-25 10:30 am E 5.1 6.0----29.89- 73.0 65.1----
2024-05-25 10:24 amESE 5.1 15.9----29.89- 72.7 65.1----
2024-05-25 10:18 am E 11.1 15.9----29.89- 70.2 64.9----
2024-05-25 10:12 amENE 6.0 8.0----29.89- 72.1 64.9----
2024-05-25 10:06 amESE 8.0 11.1----29.88- 72.9 64.9----
2024-05-25 10:00 amENE 9.9 11.1----29.88+0.02- 64.8----
2024-05-25 09:54 am NE 7.0 8.0----29.88-- 64.8----
2024-05-25 09:48 amENE 4.1 5.1----29.89-- 64.6----
2024-05-25 09:42 am NE 4.1 4.1----29.89-- 64.6----
2024-05-25 09:36 am NE 4.1 4.1----29.89-- 64.6----
2024-05-25 09:30 amENE 2.9 5.1----29.89- 72.1 64.6----
2024-05-25 09:24 am E 5.1 5.1----29.89- 70.0 64.6----
2024-05-25 09:18 am N 1.9 1.9----29.89- 73.2 64.6----
2024-05-25 09:12 amNNW 1.0 1.9----29.89- 73.9 64.6----
2024-05-25 09:06 amWNW 1.0 1.9----29.90- 73.6 64.6----
2024-05-25 09:00 amWNW 1.9 1.9----29.89+0.04 72.7 64.6----
2024-05-25 08:54 amWNW 1.9 2.9----29.89- 72.3 64.8----
2024-05-25 08:48 am NW 1.9 2.9----29.89-- 64.4----
2024-05-25 08:42 am- 0.0 1.9----29.88-- 64.6----
2024-05-25 08:36 am- 0.0 0.0----29.88-- 64.2----
2024-05-25 08:30 am- 0.0 1.9----29.88- 72.1 64.6----
2024-05-25 08:24 am W 1.0 1.9----29.88- 71.2 64.6----
2024-05-25 08:18 am W 1.9 1.9----29.88- 70.7 64.4----
2024-05-25 08:12 am- 0.0 0.0----29.88- 70.7 64.2----
2024-05-25 08:06 am- 0.0 0.0----29.87- 70.2 64.2----
2024-05-25 08:00 am- 0.0 0.0----29.88+0.02 70.7 64.2----
2024-05-25 07:54 am- 0.0 0.0----29.87- 70.3 64.0----
2024-05-25 07:48 am- 0.0 2.9----29.87- 68.9 63.9----
2024-05-25 07:42 amWSW 1.9 2.9----29.87- 68.0 63.9----
2024-05-25 07:36 am S 1.9 1.9----29.87- 67.8 63.7----
2024-05-25 07:30 am- 0.0 0.0----29.87- 68.2 63.7----
2024-05-25 07:24 am- 0.0 1.0----29.87- 66.9 63.5----
2024-05-25 07:18 am SE 1.0 1.9----29.87- 66.6 63.5----
2024-05-25 07:12 am S 1.9 1.9----29.87- 65.7 63.3----
2024-05-25 07:06 amSSE 1.9 2.9----29.87- 65.3 63.3----
2024-05-25 07:00 amSSW 2.9 5.1----29.87+0.02 64.8 63.3----
2024-05-25 06:54 amSSE 4.1 5.1----29.87- 64.6 63.1----
2024-05-25 06:48 am S 1.9 4.1----29.87- 64.4 63.1----
2024-05-25 06:42 am SE 1.9 2.9----29.87- 64.6 63.1----
2024-05-25 06:36 am S 2.9 4.1----29.86- 64.4 63.0----
2024-05-25 06:30 am-------29.86- 64.9 63.0----
2024-05-25 06:24 am-------29.86- 64.6 63.0----
2024-05-25 06:18 am S 4.1 5.1----29.85- 64.0 63.1----
2024-05-25 06:12 am S 1.9 4.1----29.85- 64.2 63.3----
2024-05-25 06:06 am S 1.9 2.9----29.85- 64.0 63.3----
2024-05-25 06:00 amSSE 1.9 2.9----29.85+0.01- 63.3----
2024-05-25 05:54 am- 0.0 0.0----29.85-- 63.3----
2024-05-25 05:48 am- 0.0 1.9----29.85- 64.8 63.5----
2024-05-25 05:42 am E 1.9 1.9----29.85- 64.6 63.5----
2024-05-25 05:36 am- 0.0 0.0----29.85- 65.1 63.3----
2024-05-25 05:30 am- 0.0 0.0------ 65.3 63.3----
2024-05-25 05:24 am- 0.0 0.0------ 65.5 63.1----
2024-05-25 05:18 am- 0.0 1.0----29.85- 65.8 63.1----
2024-05-25 05:12 am- 0.0 1.9----29.85- 65.8 63.3----
2024-05-25 05:06 am W 1.9 1.9----29.85- 65.8 63.3----
2024-05-25 05:00 am- 0.0 1.9----29.85+0.00- 63.1----
2024-05-25 04:54 am W 1.9 2.9----29.85-- 63.0----
2024-05-25 04:48 amWNW 1.9 2.9----29.85-- 62.8----
2024-05-25 04:42 am W 1.9 1.9----29.85-- 62.8----
2024-05-25 04:36 am NW 1.0 2.9----29.85-- 62.8----
2024-05-25 04:30 am W 1.9 2.9----29.85- 66.7-----
2024-05-25 04:24 am W 1.9 2.9----29.85- 66.7-----
2024-05-25 04:18 amWNW 2.9 4.1----29.85-------
2024-05-25 04:12 amWNW 2.9 4.1----29.85-------
2024-05-25 04:06 am W 2.9 4.1----29.85-------
2024-05-25 04:00 amWSW 2.9 4.1----29.85+0.00 67.5-----
2024-05-25 03:54 am W 1.9 2.9----29.85- 67.5-----
2024-05-25 03:48 amWSW 4.1 5.1----29.85- 67.5 62.2----
2024-05-25 03:42 am W 4.1 5.1----29.85- 67.5 62.2----
2024-05-25 03:36 am W 4.1 5.1----29.85- 67.6 62.2----
2024-05-25 03:30 am W 4.1 5.1----29.85- 67.6 62.2----
2024-05-25 03:24 am W 4.1 5.1----29.85- 67.8 62.2----
2024-05-25 03:18 am W 2.9 4.1----29.84- 68.0 62.1----
2024-05-25 03:12 am W 4.1 5.1----29.84- 68.2 62.2----
2024-05-25 03:06 am W 2.9 4.1----29.84- 68.4 62.2----
2024-05-25 03:00 am W 2.9 6.0----29.84-0.02- 62.4----
2024-05-25 02:54 am W 5.1 6.0----29.84-- 62.1----
2024-05-25 02:48 am W 5.1 7.0----29.84- 68.7 61.7----
2024-05-25 02:42 am W 5.1 8.0----29.85- 68.7 61.9----
2024-05-25 02:36 am W 6.0 8.0----29.85- 68.7 62.1----
2024-05-25 02:30 am W 6.0 8.9----29.85- 68.7 62.2----
2024-05-25 02:24 am W 5.1 8.9----29.85- 68.7 62.2----
2024-05-25 02:18 amWSW 5.1 8.9----29.85- 68.7 62.1----
2024-05-25 02:12 amWSW 6.0 8.0----29.85- 68.9 61.9----
2024-05-25 02:06 amWSW 6.0 8.0----29.85- 68.7 61.7----
2024-05-25 02:00 amWSW 6.0 8.0----29.85-0.02 68.5 61.5----
2024-05-25 01:54 amWSW 6.0 8.9----29.85- 68.5 61.5----
2024-05-25 01:48 amWSW 5.1 8.0----29.85- 68.5 61.3----
2024-05-25 01:42 amWSW 5.1 8.0----29.85- 68.5 61.2----
2024-05-25 01:36 amWSW 5.1 8.0----29.85- 68.5 61.2----
2024-05-25 01:30 amWSW 5.1 7.0----29.85- 68.5 61.0----
2024-05-25 01:24 amWSW 5.1 8.0----29.85- 68.7 60.8----
2024-05-25 01:18 amWSW 5.1 7.0----29.85- 68.7 60.8----
2024-05-25 01:12 amWSW 5.1 6.0----29.85- 68.7 61.0----
2024-05-25 01:06 amWSW 5.1 6.0----29.85- 68.7 61.2----
2024-05-25 01:00 amWSW 5.1 6.0----29.85+0.00 68.7 61.0----
2024-05-25 12:54 am W 5.1 6.0----29.85- 68.7 61.2----
2024-05-25 12:48 amWSW 5.1 6.0----29.85- 68.7 61.2----
2024-05-25 12:42 amWSW 4.1 6.0----29.85- 68.7 61.3----
2024-05-25 12:36 amWSW 5.1 6.0----29.86- 68.7 61.5----
2024-05-25 12:30 amWSW 5.1 6.0----29.86- 68.7 61.7----
2024-05-25 12:24 amWSW 5.1 7.0----29.86- 68.5 61.5----
2024-05-25 12:18 am SW 5.1 7.0----29.86- 68.5 61.3----
2024-05-25 12:12 amWSW 5.1 7.0----29.87- 68.4 61.3----
2024-05-25 12:06 am SW 5.1 7.0----29.87- 68.5 61.5----
2024-05-25 12:00 am SW 5.1 7.0----29.86+0.03 68.5 61.7----
2024-05-24 11:54 pm SW 5.1 7.0----29.86- 68.5 61.7----
2024-05-24 11:48 pm SW 5.1 7.0----29.86- 68.5 61.9----
2024-05-24 11:42 pm SW 5.1 7.0----29.86- 68.4 62.1----
2024-05-24 11:36 pm SW 5.1 7.0----29.87- 68.4 62.2----
2024-05-24 11:30 pm SW 5.1 7.0----29.87- 68.4 62.4----
2024-05-24 11:24 pm SW 5.1 7.0----29.87- 68.5 62.8----
2024-05-24 11:18 pm SW 4.1 7.0----29.87- 68.5 62.8----
2024-05-24 11:12 pm SW 5.1 8.0----29.87- 68.7 63.1----
2024-05-24 11:06 pm SW 5.1 8.0----29.87- 68.7 63.1----
2024-05-24 11:00 pm SW 5.1 7.0----29.87+0.04 68.7 63.7----
2024-05-24 10:54 pm SW 5.1 7.0----29.87- 68.7 64.2----
2024-05-24 10:48 pm SW 5.1 7.0----29.87- 68.7 64.6----
2024-05-24 10:42 pm SW 4.1 7.0----29.87- 68.7 64.8----
2024-05-24 10:36 pm SW 5.1 8.0----29.87- 68.7 65.3----
2024-05-24 10:30 pm SW 4.1 6.0----29.86- 68.7 65.8----
2024-05-24 10:24 pmSSW 5.1 6.0----29.86- 68.7 65.8----
2024-05-24 10:18 pmSSW 5.1 7.0----29.86- 68.9 65.8----
2024-05-24 10:12 pmSSW 5.1 8.0----29.86- 69.1 65.8----
2024-05-24 10:06 pmSSW 4.1 6.0----29.86- 69.1 65.8----
2024-05-24 10:00 pmSSW 4.1 6.0----29.86+0.01 69.1 65.8----
2024-05-24 09:54 pmSSW 2.9 5.1----29.86- 68.9 65.8----
2024-05-24 09:48 pmSSW 2.9 5.1----29.86- 69.1 65.8----
2024-05-24 09:42 pm S 4.1 5.1----29.85- 69.1 65.8----
2024-05-24 09:36 pm S 4.1 7.0----29.85- 69.1 65.7----
2024-05-24 09:30 pm S 5.1 6.0----29.85- 69.1 65.7----
2024-05-24 09:24 pm S 5.1 8.0----29.84- 69.1 65.7----
2024-05-24 09:18 pm S 5.1 7.0----29.84- 69.1 65.7----
2024-05-24 09:12 pm S 5.1 8.0----29.84- 69.1 65.7----
2024-05-24 09:06 pmSSW 5.1 7.0----29.84- 69.1 65.7----
2024-05-24 09:00 pmSSW 5.1 6.0----29.83+0.00 69.1 65.5----
2024-05-24 08:54 pm S 5.1 7.0----29.83- 69.3 65.7----
2024-05-24 08:48 pm S 5.1 8.0----29.83- 69.4 65.7----
2024-05-24 08:42 pm S 6.0 8.0----29.83- 69.4 65.7----
2024-05-24 08:36 pm S 5.1 8.0----29.83- 69.6 65.7----
2024-05-24 08:30 pm S 6.0 8.9----29.83- 69.6 65.7----
2024-05-24 08:24 pm S 7.0 9.9----29.83- 70.0 65.8----
2024-05-24 08:18 pm S 8.0 9.9----29.83- 70.2 66.0----
2024-05-24 08:12 pm S 8.0 12.0----29.83- 70.7 66.4----
2024-05-24 08:06 pm S 7.0 9.9----29.84- 71.1 66.2----
2024-05-24 08:00 pm S 7.0 11.1----29.83+0.00 71.4 66.6----
2024-05-24 07:54 pm S 7.0 8.9----29.84- 71.8 66.4----
2024-05-24 07:48 pm S 6.0 8.0----29.84- 72.5 66.2----
2024-05-24 07:42 pm S 6.0 8.0----29.84- 73.2 66.2----
2024-05-24 07:36 pmSSE 5.1 7.0----29.85- 73.0 66.2----
2024-05-24 07:30 pmSSE 5.1 7.0----29.85- 73.4 65.8----
2024-05-24 07:24 pmSSE 6.0 8.9----29.85- 73.8 65.5----
2024-05-24 07:00 pmSSW 1.9 2.9----29.85+0.00 78.4 64.6----
2024-05-24 06:54 pm SW 2.9 4.1----29.85- 78.3 64.8----
2024-05-24 06:48 pmWSW 1.9 4.1----29.84- 78.6 64.8----
2024-05-24 06:42 pm SW 1.9 4.1----29.85- 78.4 64.6----
2024-05-24 06:36 pm SW 2.9 4.1----29.85- 78.3 64.6----
2024-05-24 06:30 pm SW 2.9 5.1----29.85- 78.4 64.6----
2024-05-24 06:24 pm W 1.9 4.1----29.85- 78.3 64.4----
2024-05-24 06:18 pm SW 2.9 5.1----29.85-- 64.6----
2024-05-24 06:12 pm SW 4.1 6.0----29.84-- 64.6----
2024-05-24 06:06 pmWSW 2.9 8.0----29.84-- 64.6----
2024-05-24 06:00 pm SW 2.9 6.0----29.84-0.02 78.3 64.6----
2024-05-24 05:54 pm SW 2.9 5.1----29.84- 78.3 64.0----
2024-05-24 05:48 pmSSW 4.1 6.0----29.84- 78.1 64.0----
2024-05-24 05:42 pm S 5.1 8.0----29.83- 77.4 64.0----
2024-05-24 05:36 pmSSW 4.1 8.0----29.83- 77.7 64.0----
2024-05-24 05:30 pm SW 5.1 8.0----29.84- 77.9 64.0----
2024-05-24 05:24 pm SW 6.0 8.0----29.84- 77.5 64.0----
2024-05-24 05:18 pm S 5.1 7.0----29.84- 77.2 64.0----
2024-05-24 05:12 pm S 6.0 8.9----29.84- 77.0 64.2----
2024-05-24 05:06 pm S 6.0 8.9----29.84- 76.8 64.2----
2024-05-24 05:00 pm S 6.0 8.0----29.84-0.03 77.2 64.2----
2024-05-24 04:54 pmSSW 6.0 8.9----29.83- 77.2 64.2----
2024-05-24 04:48 pm S 5.1 8.0----29.83- 76.6 64.2----
2024-05-24 04:42 pm S 6.0 11.1----29.83- 76.8 64.2----
2024-05-24 04:36 pm S 8.0 11.1----29.84- 76.5 64.2----
2024-05-24 04:30 pm S 8.0 9.9----29.84- 76.8 64.2----
2024-05-24 04:24 pm S 6.0 8.9----29.84- 77.4 64.2----
2024-05-24 04:18 pm S 4.1 7.0----29.85- 77.7 64.2----
2024-05-24 04:12 pm SW 4.1 6.0----29.85- 77.2 64.2----
2024-05-24 04:06 pm S 2.9 7.0----29.85- 77.4 64.0----
2024-05-24 04:00 pmSSE 4.1 6.0----29.85-0.03 76.8 64.2----
2024-05-24 03:54 pm S 4.1 5.1----29.85- 76.5 64.2----
2024-05-24 03:48 pm S 1.9 4.1----29.85- 75.9 64.0----
2024-05-24 03:42 pmSSW 2.9 4.1----29.85- 75.7 63.9----
2024-05-24 03:36 pm SW 2.9 4.1----29.85- 75.6 63.9----
2024-05-24 03:30 pm S 2.9 4.1----29.85- 75.2 63.9----
2024-05-24 03:24 pm S 4.1 5.1----29.85- 75.0 63.9----
2024-05-24 03:18 pmSSW 2.9 4.1----29.85- 74.8 64.0----
2024-05-24 03:12 pm S 1.9 5.1----29.85- 74.8 64.0----
2024-05-24 03:06 pm S 2.9 5.1----29.85- 74.8 64.0----
2024-05-24 03:00 pm S 2.9 4.1----29.86-0.04 74.8 64.0----
2024-05-24 02:54 pm S 1.9 2.9----29.86- 74.8 64.2----
2024-05-24 02:48 pm S 1.0 4.1----29.86- 75.2 64.2----
2024-05-24 02:42 pm SW 2.9 4.1----29.86- 75.2 64.2----
2024-05-24 02:36 pmSSW 1.9 2.9----29.86- 75.4 64.0----
2024-05-24 02:30 pm SW 2.9 4.1----29.86- 75.2 64.0----
2024-05-24 02:24 pm SW 1.9 4.1----29.86- 75.4 64.0----
2024-05-24 02:18 pm SW 2.9 4.1----29.86- 75.0 64.2----
2024-05-24 02:12 pm S 1.9 2.9----29.86- 75.2 64.2----
2024-05-24 02:06 pm S 1.9 5.1----29.86- 75.0 64.4----
2024-05-24 02:00 pmSSW 5.1 6.0----29.87-0.03 74.8 64.2----
2024-05-24 01:54 pm S 2.9 4.1----29.87- 75.0 64.4----